Regional Weather Roundup
Issued by NWS Grand Forks, ND

Home | Current Version | Previous Version | Graphics & Text | Print | Product List | Glossary On
Versions: 1 2 3 4 5 6 7 8 9 10 11 12 13 14 15 16 17 18 19 20 21 22 23 24 25 26 27 28 29 30 31 32 33 34 35 36 37 38 39 40 41 42 43 44 45 46 47 48 49 50
000
ASUS43 KFGF 010510
RWRFGF
PRAIRIE TO PINES  WEATHER ROUNDUP
NATIONAL WEATHER SERVICE EASTERN NORTH DAKOTA/GRAND FORKS ND
1200 AM CDT WED JUL 01 2015

 **SATELLITE DATA USED TO AUGMENT SKY COVER AT AUTOMATED STATIONS**
 *****  WEATHER ACROSS EASTERN NORTH DAKOTA  *****

CITY           SKY/WX    TMP DP  RH WIND       PRES   REMARKS
GRAND FORKS    NOT AVBL
GRAND FRKS AFB CLOUDY    62  60  94 CALM      29.92S
GRAND FRKS NWS   N/A     63 N/A N/A MISG        N/A
DEVILS LAKE    NOT AVBL
WAHPETON ARPT  CLOUDY    63  59  88 CALM      29.92F
$$

 ***** WEATHER ACROSS CENTRAL AND WESTERN NORTH DAKOTA  *****

CITY           SKY/WX    TMP DP  RH WIND       PRES   REMARKS
BISMARCK       NOT AVBL
MINOT          NOT AVBL
JAMESTOWN      LGT RAIN  65  61  87 CALM      29.93S FOG
MINOT AFB      FOG       64  64 100 CALM      29.89S VSB 1
GARRISON         N/A     63  62  97 S7        29.88F
WILLISTON      NOT AVBL
DICKINSON      CLOUDY    64  62  93 E12       29.90F FOG
HETTINGER      NOT AVBL
$$

 *****  OTHER AIRPORT OBSERVATIONS IN OUR AREA  *****

CITY           SKY/WX    TMP DP  RH WIND       PRES   REMARKS
WALHALLA       FAIR      63  63 100 MISG      29.92F
GRAFTON AIRPOR FAIR      63  61  94 CALM      29.92F
VALLEY CITY AR CLOUDY    64  64 100 CALM      29.93S
CANDO          FAIR      59  59 100 SE5       29.93S
CAVALIER APRT  FAIR      63  59  88 CALM      29.92S
GWINNER        NOT AVBL
SHEYENNE NWR     N/A     64  63  95 E3        29.95S
ROLLA          CLOUDY    59  59 100 S5        29.94S
 ***** THE ABOVE OBSERVATIONS ARE NON NWS ARE NOT QUALITY
       CONTROLLED AND MAY MIS-REPORT RAIN FOR SNOW...
$$

  *****  WEATHER ACROSS NORTHERN MINNESOTA  *****

CITY           SKY/WX    TMP DP  RH WIND       PRES   REMARKS
FLAG ISLAND    MOCLDY    70  55  60 S10       29.93F
WARROAD        MOCLDY    61  55  82 CALM      29.96S
ROSEAU         MOCLDY    61  55  82 SE7       29.94S
HALLOCK        MOCLDY    64  59  82 E5        29.92S
THF RVR FALLS  NOT AVBL
BAUDETTE       NOT AVBL
WASKISH        PTCLDY    59  54  82 E3        29.96S
CROOKSTON      MOCLDY    64  55  72 CALM      29.93S
$$
  *****  WEATHER ACROSS CENTRAL AND WEST MINNESOTA  *****

CITY           SKY/WX    TMP DP  RH WIND       PRES   REMARKS
FOSSTON        CLOUDY    57  50  77 CALM      29.95S
BEMIDJI        PTCLDY    56  53  90 CALM      29.95S
PARK RAPIDS    NOT AVBL
ELBOW LAKE     FAIR      66  63  90 SE3       29.92F
WADENA           N/A     64  57  77 CALM      29.94R
DETROIT LAKES  CLOUDY    66  59  77 CALM      29.95S
MOORHEAD       CLOUDY    66  63  88 CALM      29.92S
FERGUS FALLS   CLOUDY    66  61  82 CALM      29.91F
MORRIS MN      CLOUDY    66  63  88 E5        29.92S
STAPLES        CLOUDY    64  57  77 CALM      29.94S
$$
  *****  WEATHER ELSEWHERE ACROSS MINNESOTA  *****

CITY           SKY/WX    TMP DP  RH WIND       PRES   REMARKS
DULUTH         NOT AVBL
INTRNTL FALLS  NOT AVBL
ELY            CLEAR     52  48  87 CALM      29.99R
CLOQUET        PTCLDY    52  48  87 CALM      29.99S
WHEATON        CLOUDY    63  61  94 E3        29.92F
BRAINERD       NOT AVBL
HIBBING        NOT AVBL
ALEXANDRIA     NOT AVBL
SAINT CLOUD    NOT AVBL
MINNEAPOLIS    NOT AVBL
$$

  *****  WEATHER ACROSS SOUTH DAKOTA  *****

CITY           SKY/WX    TMP DP  RH WIND       PRES   REMARKS
SIOUX FALLS    PTCLDY    68  64  87 E8        29.89S
BROOKINGS      NOT AVBL
WATERTOWN      NOT AVBL
HURON          FOG       68  68 100 CALM      29.88S VSB 1/4
SISSETON         N/A     62  59  90 CALM      29.90F
ABERDEEN       NOT AVBL
MITCHELL       NOT AVBL
PIERRE         NOT AVBL
MOBRIDGE       NOT AVBL
RAPID CITY     NOT AVBL
$$

  *****  SOME WEATHER IN NEARBY STATES *****

CITY           SKY/WX    TMP DP  RH WIND       PRES   REMARKS
GLASGOW MT     NOT AVBL
GREAT FALLS MT NOT AVBL
CHEYENNE WY    NOT AVBL
SCOTTSBLUFF NE NOT AVBL
OMAHA NE       TSTM      71  68  90 S8        29.91F
DES MOINES IA  NOT AVBL
DAVENPORT IA   NOT AVBL
CHICAGO IL     NOT AVBL
EAU CLAIRE WI  CLEAR     54  48  80 NE7       29.96S
LA CROSSE WI   NOT AVBL
$$

  *****  SOME NATIONAL WEATHER *****

CITY           SKY/WX    TMP DP  RH WIND       PRES   REMARKS
LA GUARDIA NY  NOT AVBL
RALEIGH NC     NOT AVBL
ATLANTA GA     NOT AVBL
NEW ORLEANS LA NOT AVBL
OKLAHOMA CITY  NOT AVBL
ALBUQUERQUE NM NOT AVBL
SALT LAKE CITY NOT AVBL
LOS ANGELES CA NOT AVBL
BOISE ID       NOT AVBL
SEATTLE WA     NOT AVBL
$$

*** WEATHER ACROSS MANITOBA...SASKATCHEWAN AND ONTARIO ***
                ***ONTARIO***

CITY           SKY/WX    TMP DP  RH WIND       PRES   REMARKS
GERALDTON      CLEAR     45  41  87 CALM      29.99S
THUNDER BAY    NOT AVBL
SIOUX LOOKOUT  NOT AVBL
TORONTO        CLOUDY    61  61 100 SE3       29.75F FOG
BIG TROUT LK   CLEAR     57  45  62 S8        29.93F
PICKLE LAKE    NOT AVBL
DRYDEN         CLEAR     59  50  72 E3        29.97S
KENORA         PTCLDY    61  54  77 S6        29.96S
$$
                *** MANITOBA***

CITY           SKY/WX    TMP DP  RH WIND       PRES   REMARKS
BRANDON        MOCLDY    59  57  94 CALM      29.94S
DAUPHIN        CLEAR     59  54  82 SW3       29.92S
ISLAND LAKE    CLOUDY    61  55  82 CALM      29.90F
PILOT MOUND      N/A     61  59  94 SE5         N/A
THE PAS        CLOUDY    66  61  82 SW3       29.85S
THOMPSON       MOCLDY    54  52  94 N2        29.88R
WINNIPEG       PTCLDY    61  57  88 NE3       29.92F
LYNN LAKE        N/A    N/A N/A N/A MISG        N/A
CHURCHILL      PTCLDY    54  45  71 S8        29.90S
GILLAM         TSTM      55  55 100 S5        29.88S
$$
                ***SASKATCHEWAN***

CITY           SKY/WX    TMP DP  RH WIND       PRES   REMARKS
ESTEVAN        CLOUDY    57  57 100 N3        29.93R SMOKE
KINDERSLEY     PTCLDY    61  57  88 S3        30.00R SMOKE
LLOYDMINSTER   CLOUDY    61  57  88 W9        29.98R
PRINCE ALBERT  CLOUDY    63  61  94 SW2       29.91R
REGINA         PTCLDY    55  55 100 N6        29.96S SMOKE
YORKTON        CLEAR     59  57  94 VRB2      29.94S FOG
N. BATTLEFORD  CLEAR     63  57  82 NW5       29.97S
LA RONGE       SMOKE     63  59  88 N3        29.87R VSB 3/4
SASKATOON      CLEAR     61  59  94 SW8       29.96R
SWIFT CURRENT  MOCLDY    61  57  88 NE7       30.00R FOG
$$
NOTE: THESE ARE AUTOMATED STATIONS WITH LIMITED QUALITY CONTROL
      "FAIR" INDICATES FEW OR NO CLOUDS BELOW 12,000 FEET WITH NO
      SIGNIFICANT WEATHER AND/OR OBSTRUCTIONS TO VISIBILITY.
      SKY/WX - SKY CONDITION AND SIGNIFICANT WEATHER.
      TMP - AIR TEMPERATURE.    DP   - DEWPOINT TEMPERATURE.
      RH  - RELATIVE HUMIDITY.  PRES - PRESSURE.
      HX  - HEAT INDEX.         WCI  - WIND CHILL INDEX.
$


USA.gov is the U.S. government's official web portal to all federal, state and local government web resources and services.